Location: Unspecified
(0.0000°N, 0.0000°E)
Time: 12:13:34
(UTC+00:00)

STARLINK 1058 - Pass Details

Date: 12 December 2019
Orbit: 451 x 453 km, 53.0° (Epoch: 11 December)

Event Time Altitude Azimuth Distance (km) Brightness Sun altitude
Rises 19:20:10 0° 203° (SSW) 2,446 7.7 -19.8°
Reaches altitude 10° 19:22:22 10° 195° (SSW) 1,573 6.5 -20.3°
Enters shadow 19:25:03 35° 154° (SSE) 733 4.2 -20.9°
